Simultaneous Nadir Overpasses (SNOs) Predictions

Prediction of SNOs between NPP and TERRA Satellite Orbit:

Table of predicted SNOs for the next 14.0 days since TLE Epoch: 1/10/2014
Index Date (NPP) Time (NPP) Lat,Lon (NPP) SZA (NPP ) Date (TERRA) Time (TERRA) Lat,Lon (TERRA) SZA (TERRA ) Distance(km) Time Diff (sec)
1 01/10/2014 16:43:45 -69.24, 107.04 88.94 01/10/2014 16:44:55 -69.13, 108.34 89.08 52.68 70
2 01/10/2014 17:34:19 68.56, -84.72 90.36 01/10/2014 17:34:30 68.57, -84.71 90.37 2.02 11
3 01/10/2014 18:25:00 -68.44, 82.75 89.77 01/10/2014 18:24:00 -68.46, 82.79 89.75 3.31 60
4 01/13/2014 09:00:32 -68.65,-136.38 89.97 01/13/2014 09:01:31 -68.65,-136.38 89.98 0.13 59
5 01/13/2014 09:51:16 68.51, 31.12 89.88 01/13/2014 09:50:58 68.53, 31.12 89.90 3.09 18
6 01/13/2014 10:41:47 -67.85,-160.72 90.81 01/13/2014 10:40:37 -67.93,-161.97 90.70 52.95 70
7 01/16/2014 01:17:29 -68.61, -20.55 90.50 01/16/2014 01:17:59 -68.59, -20.57 90.52 2.32 30
8 01/16/2014 02:08:13 68.47, 146.94 89.36 01/16/2014 02:07:26 68.47, 146.93 89.36 0.67 47
9 01/18/2014 16:43:45 68.70, -72.22 89.09 01/18/2014 16:44:55 68.71, -72.16 89.09 2.49 70
10 01/18/2014 17:34:26 -68.57, 95.27 91.05 01/18/2014 17:34:26 -68.56, 95.28 91.07 2.03 0
11 01/18/2014 18:25:07 68.27, -97.03 88.64 01/18/2014 18:23:55 68.32, -97.36 88.69 14.39 72
12 01/21/2014 09:00:40 68.63, 43.65 88.44 01/21/2014 09:01:21 68.65, 43.65 88.46 2.17 41
13 01/21/2014 09:51:21 -68.50,-148.86
